{"data":{"norad_id":68813,"epoch":"2026-09-19T08:39:02.407392Z","epoch_age_seconds":138254,"freshness":"FRESH","line1":"1 68813U 26089M   26262.36044453  .00012805  00000+0  39844-3 0  9994","line2":"2 68813  97.2839 108.1294 0002965  74.6533 285.5037 15.33429818 23088","mean_motion":15.33429818,"eccentricity":0.0002965,"inclination_deg":97.2839,"raan_deg":108.1294,"arg_perigee_deg":74.6533,"mean_anomaly_deg":285.5037,"bstar":0.00039844,"rev_number":2308,"period_min":93.907134392244,"perigee_km":463.55918123634,"apogee_km":467.6175103664,"semimajor_km":6843.7253458014,"source":"CELESTRAK","updated_at":"2026-09-20T09:00:44.008756Z"}}